KL7GG Weather Reports


time (UTC)temp
C
wind
direction
speed
KPH
gust
KPH
rain 1hr
cm
rain 24hr
cm
rain mn
cm
humidity
%
barometer
mb
20260509015033 8 287 9.7 16.1 0.00 0.00 0.00 55 1000.1
20260509012023 8 289 8.0 12.9 0.00 0.00 0.00 55 1000.5
20260509010519 8 316 3.2 17.7 0.00 0.00 0.00 55 1000.9
20260509005015 8 284 6.4 19.3 0.00 0.00 0.00 54 1001.0
20260509003511 7 339 1.6 11.3 0.00 0.00 0.00 54 1001.2
20260509002007 7 333 8.0 20.9 0.00 0.00 0.00 54 1001.5
20260509000501 8 277 6.4 16.1 0.00 0.00 0.00 50 1001.6
20260508234957 8 311 9.7 16.1 0.00 0.00 0.00 52 1001.8
20260508233453 8 308 9.7 17.7 0.00 0.00 0.00 50 1002.0
20260508231949 8 294 4.8 16.1 0.00 0.00 0.00 50 1002.0
20260508230443 8 313 6.4 17.7 0.00 0.00 0.00 51 1002.2
20260508223433 8 0 0.0 9.7 0.00 0.00 0.00 46 1002.5
20260508221929 8 326 4.8 14.5 0.00 0.00 0.00 46 1002.6
20260508220425 8 310 14.5 24.1 0.00 0.00 0.00 45 1002.8
20260508214921 8 295 14.5 22.5 0.00 0.00 0.00 45 1002.9
20260508213417 8 337 3.2 16.1 0.00 0.00 0.00 43 1003.1
20260508211913 8 293 1.6 9.7 0.00 0.00 0.00 48 1003.3
20260508210409 8 300 4.8 11.3 0.00 0.00 0.00 46 1003.5
20260508204903 7 0 0.0 8.0 0.00 0.00 0.00 47 1003.7
20260508203359 7 0 0.0 8.0 0.00 0.00 0.00 50 1004.1
20260508201855 7 276 6.4 14.5 0.00 0.00 0.00 51 1004.2
20260508200351 7 251 1.6 8.0 0.00 0.00 0.00 54 1004.2
20260508194847 7 319 1.6 9.7 0.00 0.00 0.00 55 1004.5
20260508193343 6 294 8.0 11.3 0.00 0.00 0.00 55 1004.6
20260508191839 6 0 0.0 9.7 0.00 0.00 0.00 57 1004.8
20260508190335 6 0 0.0 11.3 0.00 0.00 0.00 57 1005.1
20260508184831 6 294 1.6 16.1 0.00 0.00 0.00 58 1005.2
20260508183327 6 301 9.7 16.1 0.00 0.00 0.00 58 1005.4
20260508181823 6 299 9.7 17.7 0.00 0.00 0.00 59 1005.6
20260508180319 5 0 0.0 0.0 0.00 0.00 0.00 67 1005.8
20260508174815 4 314 1.6 4.8 0.00 0.00 0.00 69 1006.2
20260508173311 4 0 0.0 0.0 0.00 0.00 0.00 71 1006.3
20260508171807 4 0 0.0 0.0 0.00 0.00 0.00 72 1006.5
20260508170303 3 0 0.0 0.0 0.00 0.00 0.00 74 1006.7
20260508164759 3 0 0.0 4.8 0.00 0.00 0.00 75 1006.8
20260508163255 3 0 0.0 0.0 0.00 0.00 0.00 80 1006.9
20260508160245 2 0 0.0 0.0 0.00 0.00 0.00 82 1007.3
20260508154741 2 0 0.0 0.0 0.00 0.00 0.00 82 1007.4
20260508153237 2 0 0.0 0.0 0.00 0.00 0.00 83 1007.5
20260508151733 2 0 0.0 0.0 0.00 0.00 0.00 83 1007.8
20260508150229 2 0 0.0 0.0 0.00 0.00 0.00 82 1007.9
20260508144723 2 0 0.0 0.0 0.00 0.00 0.00 83 1008.1
20260508143219 1 0 0.0 0.0 0.00 0.00 0.00 83 1008.3
20260508141713 1 0 0.0 0.0 0.00 0.00 0.00 82 1008.4
20260508134703 2 0 0.0 0.0 0.00 0.00 0.00 81 1008.8
20260508133159 2 0 0.0 0.0 0.00 0.00 0.00 81 1008.9
20260508131653 2 0 0.0 0.0 0.00 0.00 0.00 81 1009.1
20260508130149 2 0 0.0 0.0 0.00 0.00 0.00 80 1009.3
20260508124643 2 0 0.0 0.0 0.00 0.00 0.00 80 1009.4
20260508123139 2 0 0.0 0.0 0.00 0.00 0.00 80 1009.4
20260508121635 2 0 0.0 0.0 0.00 0.00 0.00 80 1009.6
20260508120131 2 0 0.0 0.0 0.00 0.00 0.00 79 1009.7
20260508114627 2 0 0.0 0.0 0.00 0.00 0.00 79 1009.9
20260508113121 2 0 0.0 0.0 0.00 0.00 0.00 80 1010.0
20260508111617 2 0 0.0 0.0 0.00 0.00 0.00 80 1010.1
20260508110111 3 0 0.0 0.0 0.00 0.00 0.00 80 1010.4
20260508103101 3 347 1.6 4.8 0.00 0.00 0.00 79 1010.4
20260508101555 3 0 0.0 6.4 0.00 0.00 0.00 79 1010.5
20260508094545 3 0 0.0 1.6 0.00 0.00 0.00 76 1010.7
20260508093041 3 0 0.0 3.2 0.00 0.00 0.00 76 1010.8
20260508091537 3 0 0.0 0.0 0.00 0.00 0.00 74 1010.8
20260508090033 3 0 0.0 4.8 0.00 0.00 0.00 72 1010.8
20260508084529 3 0 0.0 3.2 0.00 0.00 0.00 69 1010.9
20260508083025 3 0 0.0 0.0 0.00 0.00 0.00 69 1011.0
20260508081521 3 0 0.0 1.6 0.00 0.00 0.00 66 1011.1
20260508080017 4 0 0.0 3.2 0.00 0.00 0.00 67 1011.4
20260508074513 4 0 0.0 0.0 0.00 0.00 0.00 67 1011.4
20260508073007 4 0 0.0 0.0 0.00 0.00 0.00 63 1011.5
20260508065957 5 0 0.0 0.0 0.00 0.00 0.00 60 1011.6
20260508064453 5 0 0.0 0.0 0.00 0.00 0.00 57 1011.7
20260508062949 5 0 0.0 6.4 0.00 0.00 0.00 56 1011.9
20260508061445 5 0 0.0 6.4 0.00 0.00 0.00 58 1011.9
20260508055941 6 0 0.0 0.0 0.00 0.00 0.00 58 1011.7
20260508054437 6 0 0.0 0.0 0.00 0.00 0.00 55 1011.8
20260508052933 6 0 0.0 0.0 0.00 0.00 0.00 53 1012.0
20260508045923 6 0 0.0 3.2 0.00 0.00 0.00 52 1012.1
20260508044419 7 0 0.0 9.7 0.00 0.00 0.00 52 1012.1
20260508042915 7 0 0.0 16.1 0.00 0.03 0.00 51 1012.3
20260508041411 7 0 0.0 9.7 0.00 0.03 0.00 50 1012.5
20260508035907 7 0 0.0 6.4 0.00 0.03 0.00 50 1012.6
20260508034403 7 0 0.0 17.7 0.00 0.03 0.00 49 1012.7
20260508032859 7 145 4.8 12.9 0.00 0.03 0.00 48 1012.7
20260508031355 7 124 3.2 19.3 0.00 0.03 0.00 46 1012.8
20260508025851 8 119 1.6 11.3 0.00 0.03 0.00 46 1013.0
20260508024345 8 140 1.6 16.1 0.00 0.03 0.00 46 1013.2
20260508022841 8 124 4.8 11.3 0.00 0.03 0.00 47 1013.3
20260508021337 7 154 3.2 16.1 0.00 0.03 0.00 46 1013.4
20260508015833 8 133 4.8 17.7 0.00 0.03 0.00 47 1013.4